• en Belgique
  • Liste des pays
  • À 7 jours
  • Température de l'eau
  • Carte satellitaire
  • Carte météo
  • Widgets météo
  • user-avatar
    Se connecter

    Météo par heure à Lezhё

    Ce jour, 20 Octobre, Vendredi

    Heure Température Précipitation Vent Pression Humidité
    00:00 +16°C° 0 mm 1 m/s 739 mmHg 64%
    01:00 +15°C° 0 mm 1 m/s 739 mmHg 62%
    02:00 +15°C° 0 mm 1 m/s 739 mmHg 61%
    03:00 +15°C° 0 mm 1 m/s 739 mmHg 61%
    04:00 +15°C° 0 mm 1 m/s 739 mmHg 60%
    05:00 +15°C° 0 mm 1 m/s 739 mmHg 60%
    06:00 +16°C° 0 mm 1 m/s 739 mmHg 60%
    07:00 +16°C° 0 mm 1 m/s 740 mmHg 60%
    08:00 +19°C° 0 mm 1 m/s 740 mmHg 56%
    09:00 +21°C° 0 mm 1 m/s 740 mmHg 52%
    10:00 +23°C° 0 mm 1 m/s 740 mmHg 49%
    11:00 +23°C° 0 mm 1 m/s 740 mmHg 48%
    12:00 +24°C° 0 mm 2 m/s 740 mmHg 47%
    13:00 +24°C° 0 mm 2 m/s 740 mmHg 46%
    14:00 +24°C° 0 mm 2 m/s 740 mmHg 50%
    15:00 +23°C° 0 mm 2 m/s 739 mmHg 55%
    16:00 +22°C° 0 mm 1 m/s 739 mmHg 60%
    17:00 +20°C° 0 mm 1 m/s 740 mmHg 67%
    18:00 +19°C° 0 mm 1 m/s 740 mmHg 74%
    19:00 +16°C° 0 mm 1 m/s 740 mmHg 81%
    20:00 +16°C° 0 mm 1 m/s 740 mmHg 81%
    21:00 +16°C° 0 mm 1 m/s 741 mmHg 81%
    22:00 +15°C° 0 mm 1 m/s 741 mmHg 81%
    23:00 +15°C° 0 mm 1 m/s 741 mmHg 81%

    Demain, 21 Octobre, Samedi

    Heure Température Précipitation Vent Pression Humidité
    00:00 +15°C° 0 mm 1 m/s 741 mmHg 80%
    01:00 +15°C° 0 mm 1 m/s 741 mmHg 79%
    02:00 +14°C° 0 mm 1 m/s 741 mmHg 78%
    03:00 +14°C° 0 mm 1 m/s 740 mmHg 77%
    04:00 +14°C° 0 mm 1 m/s 740 mmHg 76%
    05:00 +14°C° 0 mm 1 m/s 740 mmHg 73%
    06:00 +15°C° 0 mm 1 m/s 740 mmHg 70%
    07:00 +15°C° 0 mm 1 m/s 741 mmHg 68%
    08:00 +18°C° 0 mm 1 m/s 741 mmHg 61%
    09:00 +20°C° 0 mm 1 m/s 741 mmHg 54%
    10:00 +22°C° 0 mm 1 m/s 741 mmHg 47%
    11:00 +23°C° 0 mm 2 m/s 740 mmHg 47%
    12:00 +23°C° 0 mm 2 m/s 740 mmHg 46%
    13:00 +24°C° 0 mm 2 m/s 739 mmHg 46%
    14:00 +23°C° 0 mm 2 m/s 739 mmHg 52%
    15:00 +21°C° 0 mm 2 m/s 739 mmHg 57%
    16:00 +20°C° 0 mm 2 m/s 739 mmHg 63%
    17:00 +19°C° 0 mm 2 m/s 739 mmHg 71%
    18:00 +17°C° 0 mm 2 m/s 739 mmHg 79%
    19:00 +16°C° 0 mm 1 m/s 739 mmHg 87%
    20:00 +15°C° 0 mm 1 m/s 739 mmHg 88%
    21:00 +15°C° 0 mm 1 m/s 739 mmHg 88%
    22:00 +15°C° 0 mm 1 m/s 739 mmHg 88%
    23:00 +15°C° 0 mm 1 m/s 739 mmHg 87%

    Après-demain, 22 Octobre, Dimanche

    Heure Température Précipitation Vent Pression Humidité
    00:00 +14°C° 0 mm 1 m/s 739 mmHg 87%
    01:00 +14°C° 0 mm 1 m/s 739 mmHg 86%
    02:00 +14°C° 0 mm 1 m/s 739 mmHg 84%
    03:00 +14°C° 0 mm 1 m/s 739 mmHg 83%
    04:00 +14°C° 0 mm 1 m/s 738 mmHg 81%
    05:00 +14°C° 0 mm 1 m/s 738 mmHg 78%
    06:00 +14°C° 0 mm 1 m/s 738 mmHg 76%
    07:00 +15°C° 0 mm 1 m/s 738 mmHg 73%
    08:00 +18°C° 0 mm 1 m/s 738 mmHg 69%
    09:00 +19°C° 0 mm 1 m/s 738 mmHg 65%
    10:00 +20°C° 0 mm 2 m/s 738 mmHg 60%
    11:00 +21°C° 0 mm 2 m/s 738 mmHg 60%
    12:00 +21°C° 0 mm 2 m/s 737 mmHg 60%
    13:00 +23°C° 0 mm 2 m/s 737 mmHg 60%
    14:00 +21°C° 0 mm 2 m/s 736 mmHg 65%
    15:00 +20°C° 0 mm 2 m/s 736 mmHg 70%
    16:00 +19°C° 0 mm 2 m/s 736 mmHg 74%
    17:00 +18°C° 0 mm 2 m/s 736 mmHg 80%
    18:00 +17°C° 0 mm 2 m/s 735 mmHg 86%
    19:00 +16°C° 0 mm 2 m/s 735 mmHg 91%
    20:00 +16°C° 0 mm 2 m/s 735 mmHg 89%
    21:00 +16°C° 0 mm 3 m/s 735 mmHg 86%
    22:00 +17°C° 0 mm 3 m/s 735 mmHg 84%
    23:00 +17°C° 0,5 mm 3 m/s 734 mmHg 82%

    23 Octobre, Lundi

    Heure Température Précipitation Vent Pression Humidité
    00:00 +17°C° 0,5 mm 3 m/s 734 mmHg 81%
    01:00 +17°C° 0,5 mm 3 m/s 734 mmHg 80%
    02:00 +16°C° 0,8 mm 3 m/s 733 mmHg 82%
    03:00 +16°C° 0,8 mm 3 m/s 733 mmHg 83%
    04:00 +16°C° 0,8 mm 3 m/s 732 mmHg 85%
    05:00 +16°C° 0,2 mm 3 m/s 732 mmHg 86%
    06:00 +16°C° 0,2 mm 3 m/s 732 mmHg 87%
    07:00 +16°C° 0,2 mm 3 m/s 732 mmHg 88%
    08:00 +17°C° 0,5 mm 4 m/s 731 mmHg 83%
    09:00 +17°C° 0,5 mm 4 m/s 731 mmHg 78%
    10:00 +18°C° 0,5 mm 4 m/s 731 mmHg 74%
    11:00 +18°C° 1,1 mm 4 m/s 731 mmHg 74%
    12:00 +17°C° 1,1 mm 4 m/s 731 mmHg 74%
    13:00 +17°C° 1,1 mm 4 m/s 730 mmHg 74%
    14:00 +17°C° 1,4 mm 4 m/s 730 mmHg 76%
    15:00 +15°C° 1,4 mm 4 m/s 730 mmHg 78%
    16:00 +14°C° 1,4 mm 3 m/s 730 mmHg 80%
    17:00 +13°C° 1,6 mm 3 m/s 730 mmHg 82%
    18:00 +12°C° 1,6 mm 4 m/s 731 mmHg 84%
    19:00 +11°C° 1,6 mm 4 m/s 731 mmHg 86%
    20:00 +11°C° 1,2 mm 4 m/s 731 mmHg 84%
    21:00 +11°C° 1,2 mm 4 m/s 731 mmHg 82%
    22:00 +10°C° 1,2 mm 4 m/s 731 mmHg 81%
    23:00 +10°C° 0,5 mm 4 m/s 731 mmHg 80%

    24 Octobre, Mardi

    Heure Température Précipitation Vent Pression Humidité
    00:00 +10°C° 0,5 mm 4 m/s 731 mmHg 80%
    01:00 +10°C° 0,5 mm 4 m/s 731 mmHg 79%
    02:00 +10°C° 0,1 mm 4 m/s 731 mmHg 79%
    03:00 +10°C° 0,1 mm 4 m/s 731 mmHg 79%
    04:00 +10°C° 0,1 mm 4 m/s 731 mmHg 79%
    05:00 +8°C° 0 mm 4 m/s 731 mmHg 79%
    06:00 +8°C° 0 mm 4 m/s 731 mmHg 79%
    07:00 +8°C° 0 mm 4 m/s 731 mmHg 79%
    08:00 +10°C° 0,1 mm 4 m/s 731 mmHg 74%
    09:00 +12°C° 0,1 mm 4 m/s 731 mmHg 69%
    10:00 +13°C° 0,1 mm 5 m/s 731 mmHg 63%
    11:00 +13°C° 0,1 mm 5 m/s 731 mmHg 62%
    12:00 +13°C° 0,1 mm 5 m/s 731 mmHg 61%
    13:00 +13°C° 0,1 mm 6 m/s 731 mmHg 61%
    14:00 +13°C° 0,1 mm 5 m/s 731 mmHg 63%
    15:00 +12°C° 0,1 mm 5 m/s 731 mmHg 66%
    16:00 +10°C° 0,1 mm 5 m/s 731 mmHg 68%
    17:00 +11°C° 0,1 mm 4 m/s 731 mmHg 70%
    18:00 +11°C° 0,1 mm 4 m/s 731 mmHg 72%
    19:00 +10°C° 0,1 mm 4 m/s 731 mmHg 73%
    20:00 +10°C° 0,1 mm 4 m/s 731 mmHg 74%
    21:00 +10°C° 0,1 mm 4 m/s 731 mmHg 75%
    22:00 +11°C° 0,1 mm 4 m/s 731 mmHg 75%
    23:00 +11°C° 0,1 mm 4 m/s 731 mmHg 76%

    25 Octobre, Mercredi

    Heure Température Précipitation Vent Pression Humidité
    00:00 +11°C° 0,1 mm 4 m/s 732 mmHg 77%
    01:00 +11°C° 0,1 mm 4 m/s 732 mmHg 77%
    02:00 +11°C° 0,1 mm 4 m/s 732 mmHg 78%
    03:00 +10°C° 0,1 mm 5 m/s 732 mmHg 78%
    04:00 +10°C° 0,1 mm 5 m/s 732 mmHg 78%
    05:00 +10°C° 0,1 mm 5 m/s 733 mmHg 78%
    06:00 +12°C° 0,1 mm 5 m/s 733 mmHg 78%
    07:00 +12°C° 0,1 mm 5 m/s 734 mmHg 78%
    08:00 +13°C° 0 mm 6 m/s 734 mmHg 73%
    09:00 +15°C° 0 mm 6 m/s 735 mmHg 68%
    10:00 +16°C° 0 mm 7 m/s 735 mmHg 63%
    11:00 +16°C° 0 mm 7 m/s 736 mmHg 62%
    12:00 +16°C° 0 mm 7 m/s 736 mmHg 62%
    13:00 +16°C° 0 mm 7 m/s 736 mmHg 62%
    14:00 +15°C° 0 mm 7 m/s 737 mmHg 63%
    15:00 +15°C° 0 mm 6 m/s 737 mmHg 64%
    16:00 +15°C° 0 mm 6 m/s 737 mmHg 66%
    17:00 +14°C° 0 mm 6 m/s 738 mmHg 69%
    18:00 +13°C° 0 mm 6 m/s 739 mmHg 72%
    19:00 +11°C° 0 mm 6 m/s 740 mmHg 76%
    20:00 +11°C° 0 mm 6 m/s 740 mmHg 76%
    21:00 +10°C° 0 mm 6 m/s 740 mmHg 76%
    22:00 +10°C° 0 mm 6 m/s 741 mmHg 76%
    23:00 +10°C° 0 mm 6 m/s 741 mmHg 76%
    Voir plus